РПИ Баку

Район полетной информации Баку (UBBA) обеспечивает организацию воздушного движения в воздушном пространстве Азербайджана в сети VATSIM.

В состав РПИ входит пять международных аэропортов, четыре аэропорта совместного базирования, и четыре военных аэропорта.

Первого апреля 1996 года по решению дирекции Государственного концерна ГА под эгидой ICAO и Европейского банка развития создано предприятие аэронавигационного обслуживания  «Азераэронавигация» (AZANS) получившее статус юридической самостоятельности первым из структурных подразделений Государственного Концерна «Азербайджан Хава Йоллары». Абсолютной  задачей нового предприятия стало обеспечение безопасности полетов в воздушном пространстве Азербайджанской Республики с возложением функции обслуживания и координации воздушного движения.

С целью готовности к обслуживанию постоянно растущего потока воздушного движения на должном уровне и в соответствии с международными требованиями и стандартами был разработан широкоформатный проект нового здания Управления Воздушного Движения «Азераэронавигация» и Главного Центра ЕС УВД, и в 2012 году начато сооружение комплекса с Вышкой высотой 65 метров. В новом Центре будут применены современные технологии и достижения технического развития с прогнозом на будущее, такие как автоматизированные системы УВД производителя из Испании «ИНДРА», OLDİ, Searidge camera Surveillance Technologies AMHS,  ADS-B, A-SMGCS и т.д.

Baku Control (UBBA_CTR) sectors

United 125.500

Руководство

Grigori Badalov*

Куратор

Gregory Adamov

Помощник куратора по мероприятиям
Инструкторы РПИ
Grigori Badalov (Instructor)
Входит в состав
Кавказ

Диспетчеры РПИ

Диспетчер Рейтинг Допуски *
Wesley Wong Controller UBBA_CTR
Anatoly Zhilkin Controller UBBA_CTR
Grigori Badalov Instructor UBBA_CTR
Ivan Chernov Senior Controller UBBA_CTR
Valeriy Polostyanoy Instructor UBBA_CTR

Аэропорты РПИ

ICAO Город Название Погода
UBBB Баку Баку UBBB 241000Z 16012KT 9999 SCT030 25/10 Q1016 NOSIG
UBBQ Габала Габала UBBQ 240900Z 04005KT 9999 -RA SCT039 OVC090 16/14 Q1017 NOSIG RMK MT OBSC
UBBG Гянджа Гянджа UBBG 241000Z 03012KT 9999 OVC010 16/15 Q1016 NOSIG
UBBN Нахичевань Нахичевань UBBN 241000Z 03004KT 9999 SCT040CB BKN090 24/08 Q1011 TEMPO TS RMK QFE684
UBBL Ленкорань Ленкорань UBBL 241000Z 13010KT 9999 BKN022 21/16 Q1016 NOSIG